Flag for U.S.A. Weather past 2 weeks in St. Louis, Missouri, U.S.A.

55 °F

Rain. Fog.

Feels Like: 53 °F
Forecast: 42 / 62 °F
Wind: 7 mph from North

Location: Lambert-St. Louis International Airport

Current Time: Nov 27, 2015 at 6:37:27 AM

Latest Report: Nov 27, 2015 at 5:51 AM

Visibility: 4 mi

Pressure: 30.22 "Hg

Humidity: 90%

Dew point: 52 °F

Location of St. LouisLocation

Historic Weather in St. Louis — Graph


St. Louis temperature yesterday

Maximum temperature yesterday: 71 °F (at 12:51 PM)
Minimum temperature yesterday: 59 °F (at 12:51 AM)
Average temperature yesterday: 63 °F

Past Weeks' High & Low Weather Summary

High71 °F (Nov 14, 1:51 PM)94% (Nov 17, 7:00 AM)30.36 "Hg (Nov 17, 7:00 AM)
Low24 °F (Nov 22, 12:51 AM)19% (Nov 19, 2:51 PM)29.46 "Hg (Nov 18, 1:51 AM)
Average51 °F55%30.11 "Hg
* Reported Nov 12 4:51 AM — Nov 27 4:51 AM, St. Louis, Weather by CustomWeather, © 2015

Note: Actual official high and low records may vary slightly from our data, if they occured in-between our weather recording intervals... More about our weather records


St. Louis weather history for previous 24 hours

Time TempWeatherWind HumidityBarometerVisibility
4:51 AM
Fri, Nov 27
56 °FRain. Fog.3 mph90%30.19 "Hg5 mi
3:51 AM60 °FRain. Overcast.3 mph86%30.17 "Hg7 mi
2:51 AM62 °FLight rain. Overcast.7 mph78%30.16 "Hg9 mi
1:51 AM63 °FLight rain. Overcast.12 mph70%30.15 "Hg7 mi
12:51 AM66 °FMostly cloudy.14 mph59%30.13 "Hg10 mi
11:51 PM
Thu, Nov 26
65 °FMostly cloudy.16 mph63%30.14 "Hg10 mi
10:51 PM65 °FOvercast.14 mph63%30.16 "Hg10 mi
9:51 PM63 °FOvercast.15 mph68%30.17 "Hg10 mi
8:51 PM63 °FLight rain. Mostly cloudy.12 mph68%30.19 "Hg8 mi
7:51 PM63 °FMostly cloudy.12 mph65%30.21 "Hg10 mi
6:51 PM63 °FOvercast.14 mph68%30.22 "Hg10 mi
5:51 PM63 °FMostly cloudy.21 mph68%30.21 "Hg10 mi
4:51 PM62 °FMostly cloudy.20 mph70%30.20 "Hg10 mi
3:58 PM63 °FCloudy.15 mph68%30.21 "Hg10 mi
2:51 PM67 °FPartly sunny.15 mph61%30.19 "Hg10 mi
1:51 PM69 °FPartly sunny.15 mph57%30.20 "Hg10 mi
12:51 PM71 °FPartly sunny.21 mph53%30.21 "Hg10 mi
11:51 AM70 °FPartly sunny.17 mph55%30.23 "Hg10 mi
10:51 AM67 °FPartly sunny.17 mph59%30.27 "Hg10 mi
9:51 AM66 °FBroken clouds.16 mph59%30.29 "Hg10 mi
8:51 AM63 °FPartly sunny.16 mph60%30.29 "Hg10 mi
7:51 AM61 °FBroken clouds.14 mph62%30.29 "Hg10 mi
6:51 AM60 °FPassing clouds.18 mph65%30.28 "Hg10 mi
Weather by CustomWeather, © 2015

See weather overviewHow to use our weather pages